[[{"header":{"parameterUnit":"m.s-1","parameterCategory":1,"la1":30.2991,"la2":30.254,"lo1":-89.0895,"lo2":-89.0444,"dy":0.0017,"dx":0.0017,"nx":28,"ny":28,"refTime":"2023-04-01T21:00:00:Z","depth":0,"parameterNumber":2,"parameterNumberName":"U-component_of_WINDS"},"data":[0,0,0,0,0,0,0,0,0,0,0,0,0,0,0,0,0,0,0,0,0,0,0,0,0,0,0,0,0,0,0,0,0,0,0,0,0,0,0,0,0,0,0,0,0,0,0,0,0,0,0,0,0,0,0,0,0,0,-4.7992,-4.7992,0,-4.8015,-4.8015,-4.8016,-4.7915,-4.7912,-4.7909,-4.7906,-4.7928,-4.7932,-4.7935,0,0,0,0,0,0,0,0,0,0,0,0,0,-4.7861,-4.7864,-4.7992,-4.7992,-4.7992,-4.8015,-4.8015,-4.8016,-4.7915,-4.7912,-4.7908,-4.7905,-4.7927,-4.7931,-4.7935,0,0,0,0,0,0,0,0,0,0,0,0,0,-4.7904,-4.7865,-4.7992,-4.7945,-4.7941,-4.8015,-4.8015,-4.8016,-4.7916,-4.7912,-4.7907,-4.7903,-4.7926,-4.7931,-4.7936,-4.8055,0,0,-4.7951,-4.7953,0,0,0,0,0,0,0,0,-4.7902,-4.7909,-4.7952,-4.7948,-4.7944,-4.7958,-4.7977,-4.8029,-4.7917,-4.7926,-4.7906,-4.7901,-4.7942,-4.7945,-4.7959,-4.8056,-4.8057,-4.7952,-4.7955,-4.7957,-4.7958,0,0,0,0,0,0,0,-4.7899,-4.7908,-4.8001,-4.7952,-4.7948,-4.7923,-4.7924,-4.7987,-4.7958,-4.7924,-4.7917,-4.7921,-4.7939,-4.7955,-4.7959,-4.8058,-4.7951,-4.7956,-4.7959,-4.7961,-4.8255,-4.826,0,0,0,0,0,0,-4.7902,-4.7906,-4.8,-4.8002,-4.7912,-4.7929,-4.793,-4.7958,-4.7957,-4.7953,-4.7925,-4.7917,-4.7948,-4.7953,-4.7959,-4.8099,-4.7957,-4.7961,-4.7964,-4.8251,-4.8257,-4.8262,0,0,0,0,0,0,-4.79,-4.7912,-4.7999,-4.7952,-4.7961,-4.7936,-4.7967,-4.7961,-4.7976,-4.7958,-4.7952,-4.7947,-4.7945,-4.7952,-4.8033,-4.8098,-4.7964,-4.7968,-4.8245,-4.8252,-4.8259,-4.838,0,0,0,0,0,0,-4.7896,-4.7911,-4.7956,-4.7954,-4.7964,-4.8072,-4.7971,-4.7964,-4.7985,-4.7974,-4.7976,-4.7972,-4.7942,-4.8026,-4.8038,-4.8103,-4.7972,-4.8239,-4.8248,-4.8257,-4.837,-4.839,-4.8408,0,0,0,0,0,-4.7892,-4.7989,-4.7959,-4.7971,-4.802,-4.8076,-4.8082,-4.8046,-4.7991,-4.8036,-4.8025,-4.7972,-4.809,-4.8035,-4.8047,-4.8115,-4.8235,-4.8246,-4.8256,-4.8361,-4.8386,-4.8407,0,0,0,0,0,0,-4.7998,-4.7987,-4.7954,-4.8053,-4.8067,-4.8059,-4.8114,-4.8073,-4.8102,-4.8091,-4.8044,-4.8045,-4.8134,-4.8133,-4.8071,-4.8231,-4.8153,-4.8167,-4.8228,-4.8252,-4.8271,-4.8268,-4.7976,0,0,0,0,0,-4.8033,-4.8081,-4.8068,-4.8157,-4.8165,-4.814,-4.8163,-4.8134,-4.8146,-4.8151,-4.8145,-4.8158,-4.8198,-4.8225,-4.8261,-4.837,-4.8369,-4.8423,-4.8442,-4.8458,-4.847,-4.8528,-4.8552,-4.8297,-4.8297,-4.8297,0,0,-4.8105,-4.8106,-4.8138,-4.8178,-4.8185,-4.8235,-4.8145,-4.8201,-4.8237,-4.8159,-4.8234,-4.8232,-4.8243,-4.8339,-4.8381,-4.8341,-4.8541,-4.8472,-4.8485,-4.8488,-4.8541,-4.8566,-4.8587,-4.8305,-4.8303,-4.8302,0,0,-4.8262,-4.8268,-4.8342,-4.8352,-4.8364,-4.8347,-4.8365,-4.8365,-4.836,-4.8436,-4.8378,-4.8422,-4.8491,-4.8502,-4.8517,-4.8683,-4.8636,-4.8696,-4.8794,-4.8851,-4.8871,-4.8889,-4.8947,-4.8968,-4.8708,-4.8709,-4.8709,0,-4.835,-4.8423,-4.8385,-4.8446,-4.8465,-4.8399,-4.8474,-4.8485,-4.8509,-4.8524,-4.8479,-4.8567,-4.857,-4.8667,-4.8708,-4.8723,-4.8742,-4.8694,-4.8872,-4.8889,-4.8905,-4.8959,-4.8982,-4.8716,-4.8715,-4.8714,-4.8714,0,-4.853,-4.8582,-4.8641,-4.8666,-4.8693,-4.8761,-4.8733,-4.8765,-4.8735,-4.8723,-4.8801,-4.8804,-4.8839,-4.8861,-4.8831,-4.8955,-4.8929,-4.888,-4.8799,-4.8937,-4.8987,-4.9008,-4.8726,-4.8723,-4.8721,-4.872,0,0,-4.875,-4.8757,-4.8779,-4.879,-4.8801,-4.884,-4.8906,-4.8942,-4.897,-4.899,-4.9043,-4.9106,-4.906,-4.9077,-4.9049,-4.91,-4.923,-4.9043,-4.9043,-4.9077,-4.9366,-4.9402,-4.9427,-4.9201,-4.9205,-4.9208,-4.9364,0,-4.8903,-4.9015,-4.8984,-4.9096,-4.9144,-4.9083,-4.9141,-4.9154,-4.9145,-4.9184,-4.9175,-4.9219,-4.9156,-4.9166,-4.9214,-4.9204,-4.9287,-4.9193,-4.9249,-4.9251,-4.9245,-4.9454,-4.9491,-4.9639,-4.9384,-4.9388,-4.939,0,-4.9095,-4.9124,-4.9241,-4.9246,-4.9264,-4.9316,-4.9347,-4.9386,-4.9401,-4.9391,-4.9412,-4.9375,-4.944,-4.9362,-4.9451,-4.9387,-4.9409,-4.9408,-4.9413,-4.9415,-4.9327,-4.9459,-4.9685,-4.9707,-4.9421,-4.9419,-4.9416,0,-4.9243,-4.9311,-4.939,-4.9402,-4.9409,-4.9447,-4.9452,-4.9463,-4.9487,-4.9515,-4.953,-4.9565,-4.9584,-4.9612,-4.9586,-4.9531,-4.9679,-4.9598,-4.9671,-4.9672,-4.9702,-4.97,-4.9933,-4.9721,-4.972,-4.972,-4.972,0,-4.9415,-4.9488,-4.9456,-4.9504,-4.9586,-4.9551,-4.9632,-4.963,-4.9641,-4.9688,-4.9638,-4.9684,-4.9647,-4.9689,-4.9669,-4.9746,-4.9755,-4.9748,-4.9742,-4.9751,-4.9752,-4.9763,-4.9751,-4.9726,-4.9725,-4.9723,-4.9722,0,-4.9591,-4.9573,-4.9655,-4.9657,-4.9659,-4.9719,-4.972,-4.9765,-4.9755,-4.9815,-4.9827,-4.981,-4.9858,-4.9835,-4.9884,-4.9871,-4.9969,-4.995,-4.9964,-4.9958,-5.0033,-5.0025,-5.0278,-5.031,-5.0079,-5.0081,-5.0083,0,-4.9701,-4.9757,-4.9766,-4.9794,-4.9803,-4.9849,-4.9875,-4.9844,-4.9872,-4.9894,-4.9937,-4.998,-5.0013,-5.0092,-5.0083,-5.0121,-5.0101,-5.0188,-5.0106,-5.0115,-5.0101,-5.0097,-5.0102,-5.0203,-5.0206,-5.0208,-5.021,0,-4.9898,-4.9887,-4.9925,-4.9962,-4.9993,-5.002,-5.0042,-5.0069,-5.0039,-5.0073,-5.0122,-5.0148,-5.0199,-5.0243,-5.0277,-5.0281,-5.0241,-5.0236,-5.0255,-5.0264,-5.0269,-5.0266,-5.0007,-5.0229,-5.0227,-5.0226,-5.0225,-5.0224,-5.0043,-5.009,-5.0104,-5.0149,-5.0164,-5.0186,-5.0229,-5.0225,-5.0265,-5.0305,-5.0285,-5.0342,-5.0356,-5.0398,-5.0409,-5.0453,-5.0418,-5.0446,-5.0452,-5.0459,-5.0468,-5.0265,-5.0459,-5.0458,-5.0458,-5.0457,-5.0457,0,-5.0236,-5.0243,-5.0285,-5.0319,-5.0355,-5.0316,-5.034,-5.0372,-5.0423,-5.0441,-5.0475,-5.0532,-5.0575,-5.0572,-5.0611,-5.0647,-5.0629,-5.0658,-5.0654,-5.0656,-5.0497,-5.0476,-5.0672,-5.0672,-5.0672,-5.0672,-5.0672,-5.0672,-5.034,-5.0418,-5.0409,-5.0494,-5.05,-5.0556,-5.0573,-5.0594,-5.0608,-5.0674,-5.071,-5.0708,-5.0718,-5.0758,-5.0796,-5.0794,-5.081,-5.0846,-5.0837,-5.0688,-5.0667,-5.0646,-5.0626,-5.085,-5.0851,-5.0992,-5.0993,-5.0994]},{"header":{"parameterUnit":"m.s-1","parameterCategory":1,"la1":30.2991,"la2":30.254,"lo1":-89.0895,"lo2":-89.0444,"dy":0.0017,"dx":0.0017,"nx":28,"ny":28,"refTime":"2023-04-01T21:00:00:Z","depth":0,"parameterNumber":3,"parameterNumberName":"V-component_of_WINDS"},"data":[0,0,0,0,0,0,0,0,0,0,0,0,0,0,0,0,0,0,0,0,0,0,0,0,0,0,0,0,0,0,0,0,0,0,0,0,0,0,0,0,0,0,0,0,0,0,0,0,0,0,0,0,0,0,0,0,0,0,3.1698,3.1698,0,3.1695,3.1695,3.1695,3.1709,3.1709,3.171,3.171,3.1702,3.1702,3.1701,0,0,0,0,0,0,0,0,0,0,0,0,0,3.1712,3.1712,3.1698,3.1698,3.1698,3.1695,3.1695,3.1695,3.1709,3.1709,3.171,3.171,3.1702,3.1702,3.1701,0,0,0,0,0,0,0,0,0,0,0,0,0,3.1707,3.1712,3.1698,3.1704,3.1705,3.1695,3.1695,3.1695,3.1709,3.1709,3.171,3.1711,3.1703,3.1702,3.1701,3.1682,0,0,3.1698,3.1698,0,0,0,0,0,0,0,0,3.1707,3.1706,3.1703,3.1704,3.1705,3.1703,3.1697,3.169,3.1709,3.1707,3.171,3.1711,3.1702,3.1701,3.1699,3.1682,3.1682,3.1698,3.1697,3.1697,3.1697,0,0,0,0,0,0,0,3.1708,3.1707,3.1696,3.1703,3.1704,3.1706,3.1706,3.1696,3.1701,3.1707,3.1708,3.1708,3.1702,3.1699,3.1699,3.1681,3.1698,3.1697,3.1697,3.1696,3.1651,3.165,0,0,0,0,0,0,3.1708,3.1707,3.1696,3.1696,3.1708,3.1706,3.1706,3.1703,3.1701,3.1701,3.1708,3.1709,3.1701,3.17,3.1698,3.1677,3.1697,3.1696,3.1696,3.1651,3.1651,3.165,0,0,0,0,0,0,3.1708,3.1707,3.1697,3.1702,3.1701,3.1705,3.1701,3.1702,3.17,3.1701,3.1702,3.1704,3.1701,3.17,3.1687,3.1677,3.1696,3.1695,3.1652,3.1651,3.165,3.1635,0,0,0,0,0,0,3.1708,3.1707,3.17,3.1702,3.1701,3.1686,3.1701,3.1702,3.1699,3.1701,3.1698,3.1698,3.1702,3.1688,3.1686,3.1676,3.1694,3.1653,3.1652,3.1651,3.1636,3.1633,3.1631,0,0,0,0,0,3.1709,3.1694,3.17,3.1698,3.1693,3.1685,3.1685,3.169,3.1698,3.1691,3.1692,3.1698,3.1679,3.1687,3.1684,3.1674,3.1654,3.1652,3.1651,3.1637,3.1634,3.1631,0,0,0,0,0,0,3.1689,3.1695,3.1701,3.1687,3.1686,3.1688,3.1679,3.1686,3.1681,3.1683,3.1688,3.1688,3.1674,3.1673,3.1681,3.1657,3.1668,3.1665,3.1658,3.1655,3.1652,3.1652,3.1693,0,0,0,0,0,3.1684,3.1679,3.1683,3.1671,3.167,3.1675,3.1672,3.1677,3.1675,3.1674,3.1674,3.1671,3.1665,3.166,3.1653,3.1636,3.1636,3.1628,3.1626,3.1624,3.1621,3.1613,3.161,3.1645,3.1645,3.1645,0,0,3.1672,3.1674,3.167,3.1667,3.1667,3.166,3.1674,3.1667,3.1662,3.1672,3.1661,3.1661,3.1658,3.1643,3.1637,3.1642,3.1612,3.1622,3.162,3.1619,3.1611,3.1608,3.1605,3.1644,3.1644,3.1644,0,0,3.1647,3.1648,3.1638,3.1639,3.1639,3.1643,3.164,3.1642,3.1643,3.1632,3.164,3.1634,3.1622,3.162,3.1618,3.1594,3.16,3.1592,3.1578,3.157,3.1567,3.1565,3.1556,3.1553,3.159,3.159,3.159,0,3.1631,3.1623,3.1632,3.1624,3.1623,3.1635,3.1624,3.1624,3.1621,3.1619,3.1626,3.1613,3.1611,3.1597,3.1591,3.1589,3.1586,3.1592,3.1567,3.1565,3.1562,3.1554,3.1551,3.1589,3.1589,3.1589,3.1589,0,3.1604,3.1598,3.159,3.159,3.1588,3.1578,3.1585,3.1581,3.1587,3.159,3.1579,3.1578,3.1573,3.157,3.1574,3.1556,3.1559,3.1566,3.1577,3.1558,3.1551,3.1548,3.1588,3.1588,3.1588,3.1589,0,0,3.1564,3.1571,3.1568,3.1569,3.1571,3.1566,3.1558,3.1555,3.1551,3.155,3.1543,3.1534,3.1541,3.1538,3.1542,3.1535,3.1517,3.1543,3.1543,3.1538,3.1498,3.1492,3.1488,3.1521,3.1521,3.152,3.1498,0,3.154,3.1528,3.1536,3.1522,3.1517,3.1529,3.1522,3.1522,3.1525,3.152,3.1523,3.1517,3.1527,3.1525,3.1519,3.1521,3.1509,3.1523,3.1514,3.1513,3.1513,3.1484,3.1478,3.1456,3.1495,3.1495,3.1494,0,3.1509,3.1509,3.1495,3.1499,3.1498,3.1491,3.1489,3.1485,3.1486,3.1489,3.1487,3.1493,3.1485,3.1497,3.1485,3.1494,3.1491,3.1491,3.1491,3.1489,3.1502,3.1482,3.145,3.1446,3.149,3.149,3.149,0,3.1482,3.1478,3.1469,3.1469,3.1474,3.147,3.1471,3.1473,3.1471,3.1469,3.1468,3.1464,3.1462,3.1459,3.1464,3.1472,3.1452,3.1464,3.1453,3.1453,3.1447,3.1447,3.1414,3.1446,3.1446,3.1446,3.1446,0,3.1453,3.1444,3.1457,3.1451,3.1442,3.1452,3.1441,3.1444,3.1446,3.144,3.145,3.1445,3.1453,3.1448,3.1452,3.1442,3.144,3.1442,3.1443,3.144,3.144,3.1438,3.1439,3.1446,3.1446,3.1446,3.1446,0,3.142,3.1429,3.142,3.1427,3.1429,3.1421,3.1426,3.1421,3.1426,3.1419,3.1418,3.1424,3.1419,3.1425,3.142,3.1423,3.1409,3.1412,3.1409,3.141,3.1399,3.1399,3.1362,3.1357,3.1393,3.1393,3.1393,0,3.1401,3.1395,3.1402,3.14,3.1402,3.1398,3.1397,3.1407,3.1405,3.1406,3.14,3.1397,3.1394,3.1386,3.1389,3.1386,3.1389,3.1376,3.1388,3.1386,3.1388,3.1388,3.1388,3.1373,3.1372,3.1372,3.1372,0,3.1366,3.1371,3.137,3.137,3.1369,3.1369,3.137,3.1367,3.1378,3.1375,3.1371,3.137,3.1366,3.1362,3.136,3.136,3.1367,3.1368,3.1366,3.1363,3.1361,3.1362,3.1402,3.1369,3.1369,3.1369,3.1369,3.137,3.1339,3.1335,3.1339,3.1337,3.134,3.1341,3.1337,3.1342,3.1339,3.1338,3.1344,3.1339,3.1341,3.1339,3.1339,3.1335,3.134,3.1336,3.1335,3.1333,3.1332,3.1363,3.1334,3.1334,3.1334,3.1334,3.1334,0,3.1305,3.1309,3.1307,3.1309,3.1308,3.1318,3.1319,3.1317,3.1313,3.1315,3.1313,3.1309,3.1306,3.131,3.1308,3.1303,3.1307,3.1302,3.1302,3.1302,3.1327,3.133,3.13,3.13,3.13,3.13,3.13,3.13,3.1286,3.1279,3.1285,3.1279,3.1283,3.1279,3.128,3.1281,3.1282,3.1278,3.1276,3.128,3.1283,3.1281,3.1278,3.128,3.1278,3.1272,3.1274,3.1297,3.13,3.1304,3.1306,3.1272,3.1272,3.125,3.125,3.125]}]]